User: anonymous   Login
Location: LDNL
(36.4545°S, 141.6685°E)
Time: 19:29:16
(UTC+10:00)
Language:

Oscar 19 - Orbit

View from above orbital plane
View from above orbital plane
View from above satellite
View from above satellite

Ground track
Ground track

The orbit data is extracted from the following two-line orbital elements,

1 20442U 90005G   24112.96680709  .00000808  00000-0  30891-3 0  9991
2 20442  98.8810 101.7638 0011606 356.3944   3.7154 14.33496451789781
Epoch (UTC): 21 April 2024 23:12:12
Eccentricity: 0.0011606
inclination: 98.8810°
perigee height: 772 km
apogee height: 788 km
right ascension of ascending node: 101.7638°
argument of perigee: 356.3944°
revolutions per day: 14.33496451
mean anomaly at epoch: 3.7154°
orbit number at epoch: 78978

The dashed part of the orbit path shows where the satellite is in the earth's shadow,  

DLR